Date String (YYYY-MM-DD hh:mm:ss) UTC,Instrument flags,Ambient pressure (hPa),Sample flow (lpm),Bypass flow (lpm),Sample temperature (°C),Ambient temperature (°C),ASC tube jacket temperature (°C),LED temperature (°C),Box temperature (°C),Sample RH (%),Span deviation,Mass concentration (μg/m³),Mass concentration (μg/m³),Mass concentration (μg/m³)
DateTimeUTC,F1_M11,P_M11,Q1_M11,Q2_M11,T1_M11,T2_M11,T3_M11,T4_M11,T5_M11,U1_M11,ZSPAN_M11,X0_M11,X2_M11,X1_M11
2022-08-16 19:00:00,,0832.6,5.00,0.00,32.2,29.2,00.0,40.2,32.7,33.8,0000.0,0010.66,0005.87,0005.21
2022-08-16 19:01:00,,0832.6,5.00,0.00,32.2,28.7,00.0,40.2,32.5,33.1,0000.0,0010.66,0005.87,0005.21
2022-08-16 19:02:00,,0832.6,5.00,0.00,32.0,28.0,00.0,40.1,32.3,33.0,0000.0,0010.68,0005.86,0005.21
2022-08-16 19:03:00,,0832.6,5.00,0.00,31.9,27.7,00.0,40.1,32.2,33.4,0000.0,0010.72,0005.87,0005.22
2022-08-16 19:04:00,,0832.6,4.99,0.00,31.8,27.7,00.0,40.1,32.2,33.3,0000.0,0009.93,0005.87,0005.23
2022-08-16 19:05:00,,0832.6,5.00,0.00,31.7,27.8,00.0,40.1,32.2,34.0,0000.0,0009.59,0005.87,0005.25
2022-08-16 19:06:00,,0832.6,4.99,0.00,31.6,27.9,00.0,40.0,32.2,34.1,0000.0,0009.74,0005.92,0005.26
2022-08-16 19:07:00,,0832.5,5.01,0.00,31.6,28.1,00.0,40.0,32.2,35.4,0000.0,0009.53,0005.90,0005.27
2022-08-16 19:08:00,,0832.5,5.01,0.00,31.7,28.2,00.0,40.0,32.4,35.1,0000.0,0009.85,0005.90,0005.27
2022-08-16 19:09:00,,0832.6,4.99,0.00,31.9,28.3,00.0,39.9,32.5,34.3,0000.0,0009.73,0005.88,0005.25
2022-08-16 19:10:00,,0832.5,5.00,0.00,32.0,28.5,00.0,39.9,32.5,33.4,0000.0,0009.66,0005.86,0005.24
2022-08-16 19:11:00,,0832.6,5.00,0.00,32.0,28.6,00.0,40.0,32.5,33.3,0000.0,0009.63,0005.85,0005.23
2022-08-16 19:12:00,,0832.5,5.00,0.00,32.0,28.7,00.0,40.0,32.5,33.1,0000.0,0009.83,0005.86,0005.24
2022-08-16 19:13:00,,0832.6,5.00,0.00,32.0,28.8,00.0,40.0,32.5,33.8,0000.0,0009.74,0005.83,0005.23
2022-08-16 19:14:00,,0832.6,4.99,0.00,32.0,28.9,00.0,40.0,32.5,33.8,0000.0,0009.70,0005.80,0005.21
2022-08-16 19:15:00,,0832.6,5.00,0.00,31.9,28.9,00.0,40.1,32.5,33.4,0000.0,0009.71,0005.80,0005.19
2022-08-16 19:16:00,,0832.6,5.01,0.00,31.9,29.0,00.0,40.1,32.5,33.0,0000.0,0009.61,0005.77,0005.17
2022-08-16 19:17:00,,0832.5,5.01,0.00,31.9,29.1,00.0,40.1,32.5,33.7,0000.0,0009.49,0005.70,0005.13
2022-08-16 19:18:00,,0832.5,5.00,0.00,31.8,29.1,00.0,40.1,32.6,33.7,0000.0,0009.51,0005.72,0005.13
2022-08-16 19:19:00,,0832.5,5.00,0.00,31.8,29.2,00.0,40.1,32.6,33.3,0000.0,0009.12,0005.76,0005.16
2022-08-16 19:20:00,,0832.5,5.01,0.00,31.8,29.1,00.0,40.1,32.5,34.8,-000.0,0009.20,0005.78,0005.18
2022-08-16 19:21:00,,0832.5,4.99,0.00,31.8,28.5,00.0,40.0,32.4,33.9,-000.0,0009.35,0005.84,0005.19
2022-08-16 19:22:00,,0832.4,4.99,0.00,31.7,27.9,00.0,40.0,32.3,33.8,0000.0,0009.35,0005.84,0005.21
2022-08-16 19:23:00,,0832.4,5.01,0.00,31.6,27.7,00.0,39.9,32.1,33.9,0000.0,0009.23,0005.85,0005.20
2022-08-16 19:24:00,,0832.4,4.99,0.00,31.5,27.8,00.0,39.9,32.1,33.9,0000.0,0009.23,0005.86,0005.19
2022-08-16 19:25:00,,0832.4,5.01,0.00,31.4,27.9,00.0,39.9,32.1,33.8,0000.0,0009.31,0005.90,0005.19
2022-08-16 19:26:00,,0832.5,4.99,0.00,31.4,28.0,00.0,39.9,32.1,33.7,0000.0,0009.56,0005.92,0005.20
2022-08-16 19:27:00,,0832.4,5.00,0.00,31.3,28.2,00.0,39.8,32.2,34.1,0000.0,0009.99,0005.95,0005.21
2022-08-16 19:28:00,,0832.4,5.00,0.00,31.3,28.3,00.0,39.8,32.2,33.5,0000.0,0010.00,0005.97,0005.23
2022-08-16 19:29:00,,0832.3,5.00,0.00,31.2,28.4,00.0,39.8,32.2,34.2,0000.0,0010.09,0005.99,0005.24
2022-08-16 19:30:00,,0832.3,5.00,0.00,31.2,28.6,00.0,39.8,32.2,34.6,0000.0,0010.05,0005.97,0005.25
2022-08-16 19:31:00,,0832.4,5.00,0.00,31.2,28.7,00.0,39.7,32.3,34.0,0000.0,0009.98,0005.97,0005.26
2022-08-16 19:32:00,,0832.3,5.01,0.00,31.2,28.8,00.0,39.7,32.3,34.9,0000.0,0010.23,0005.99,0005.27
2022-08-16 19:33:00,,0832.3,5.00,0.00,31.2,28.9,00.0,39.7,32.4,34.3,0000.0,0010.70,0006.01,0005.28
2022-08-16 19:34:00,,0832.3,5.01,0.00,31.3,28.9,00.0,39.7,32.4,35.0,0000.0,0010.76,0006.02,0005.30
2022-08-16 19:35:00,,0832.3,4.98,0.00,31.4,29.0,00.0,39.7,32.5,34.5,0000.0,0010.59,0005.97,0005.29
2022-08-16 19:36:00,,0832.4,5.01,0.00,31.4,29.1,00.0,39.7,32.5,34.5,0000.0,0010.54,0005.96,0005.30
2022-08-16 19:37:00,,0832.3,5.00,0.00,31.5,29.0,00.0,39.7,32.5,33.6,0000.0,0010.42,0005.98,0005.30
2022-08-16 19:38:00,,0832.3,4.99,0.00,31.5,28.4,00.0,39.7,32.3,34.2,0000.0,0010.40,0005.94,0005.29
2022-08-16 19:39:00,,0832.3,5.02,0.00,31.5,27.9,00.0,39.6,32.1,35.1,0000.0,0010.97,0005.94,0005.29
2022-08-16 19:40:00,,0832.4,5.01,0.00,31.5,27.7,00.0,39.6,32.1,34.4,-000.1,0011.01,0005.90,0005.27
2022-08-16 19:41:00,,0832.3,5.00,0.00,31.5,27.7,00.0,39.6,32.1,34.0,-000.1,0011.03,0005.90,0005.26
2022-08-16 19:42:00,,0832.3,5.00,0.00,31.5,27.8,00.0,39.6,32.1,33.5,0000.0,0011.07,0005.88,0005.25
2022-08-16 19:43:00,,0832.4,5.00,0.00,31.4,28.0,00.0,39.6,32.1,33.6,0000.0,0010.84,0005.82,0005.24
2022-08-16 19:44:00,,0832.3,5.01,0.00,31.4,28.1,00.0,39.6,32.1,34.9,0000.0,0010.62,0005.81,0005.22
2022-08-16 19:45:00,,0832.3,4.99,0.00,31.5,28.3,00.0,39.6,32.2,34.5,0000.0,0010.90,0005.82,0005.20
2022-08-16 19:46:00,,0832.3,5.00,0.00,31.6,28.4,00.0,39.7,32.3,33.9,0000.0,0010.91,0005.82,0005.19
2022-08-16 19:47:00,,0832.3,5.00,0.00,31.7,28.5,00.0,39.7,32.4,33.8,0000.0,0011.38,0005.81,0005.18
2022-08-16 19:48:00,,0832.4,5.00,0.00,31.7,28.7,00.0,39.7,32.4,33.8,0000.0,0011.69,0005.78,0005.16
2022-08-16 19:49:00,,0832.4,5.00,0.00,31.7,28.8,00.0,39.7,32.4,34.3,0000.0,0011.45,0005.77,0005.14
2022-08-16 19:50:00,,0832.3,5.02,0.00,31.7,28.9,00.0,39.8,32.4,33.7,0000.0,0010.61,0005.76,0005.15
2022-08-16 19:51:00,,0832.3,4.98,0.00,31.6,29.0,00.0,39.8,32.4,34.0,0000.0,0010.44,0005.77,0005.17
2022-08-16 19:52:00,,0832.4,5.01,0.00,31.6,29.0,00.0,39.8,32.5,33.5,0000.0,0010.46,0005.80,0005.19
2022-08-16 19:53:00,,0832.4,5.00,0.00,31.6,29.0,00.0,39.8,32.4,33.3,0000.0,0010.44,0005.83,0005.21
2022-08-16 19:54:00,,0832.3,5.01,0.00,31.5,28.4,00.0,39.8,32.2,34.3,0000.0,0010.91,0005.84,0005.24
2022-08-16 19:55:00,,0832.3,5.00,0.00,31.5,27.8,00.0,39.8,32.1,34.7,0000.0,0011.10,0005.87,0005.26
2022-08-16 19:56:00,,0832.3,5.00,0.00,31.4,27.6,00.0,39.7,32.0,35.0,0000.0,0010.92,0005.88,0005.29
2022-08-16 19:57:00,,0832.2,5.00,0.00,31.4,27.6,00.0,39.7,32.1,33.8,0000.0,0010.96,0005.91,0005.30
2022-08-16 19:58:00,,0832.2,5.05,0.00,31.5,27.7,00.0,39.7,32.1,33.3,0000.0,0010.90,0005.95,0005.32
2022-08-16 19:59:00,,0832.2,5.01,0.00,31.5,27.9,00.0,39.7,32.1,32.9,0000.0,0010.86,0005.95,0005.33
